Location: Cronhütte
(48.9135°N, 9.6869°E)
Time: 13:00:00
(UTC+00:00)

Genesis I - Pass Details

Date: 14 August 2024
Orbit: 411 x 455 km, 64.5° (Epoch: 16 September)

Event Time Altitude Azimuth Distance (km) Brightness Sun altitude
Exits shadow 00:59:57 19° 97° (E) 1,135 5.1 -23.5°
Drops below altitude 10° 01:01:48 10° 67° (ENE) 1,578 6.3 -23.4°
Sets 01:04:18 0° 51° (NE) 2,469 7.7 -23.2°
